Погода в Гюмюльдюре

Турция     38°03′20″N   27°02′34″E
темп.,
°C
ветер,
м/с
пор.,
м/с
влажн.,
%
обл.,
%
осадки,
мм/ч
давл.,
гПа
погр.,
м
19 апреля, пн
пн1900:00+16всв6777100 0.4 101564
03:00+17всв4578100 0.8 101454
06:00+16всв5584100 2.3 101372
09:00+17ю1383100 2.8 1015224
12:00+17с2381100 1.1 1014239
15:00+16зсз5875100 1.1 1014785
18:00+14зсз2477100 0.4 1013505
21:00+14в22690 0.5 1013215
20 апреля, вт
вт2000:00+14ююв45740 0.0 1012476
03:00+14юв56770 0.0 1012398
06:00+14ююв34781 0.1 1012217
09:00+15юз45640 0.1 10141033
12:00+15зюз34620 0.0 1015638
15:00+16з55610 0.0 1015533
18:00+15з44650 0.0 1015412
21:00+15ссз22690 0.0 101696
21 апреля, ср
ср2100:00+14всв22712 0.0 1017114
03:00+13всв2271100 0.0 1017122
06:00+13всв32660 0.0 1017113
09:00+14в22540 0.0 1018219
12:00+15юз2253100 0.0 1019406
15:00+17з5454100 0.0 1019329
18:00+16зсз455938 0.0 1018219
21:00+15зсз44680 0.0 101999
22 апреля, чт
чт2200:00+14ссв226040 0.0 102086
03:00+14ссв22595 0.0 102092
06:00+13св226125 0.0 1020101
09:00+15св115596 0.0 1021204
12:00+16юз33564 0.0 1021407
15:00+17з556083 0.0 1020438
18:00+18з666075 0.0 1019174
21:00+16сз345795 0.0 102058
23 апреля, пт
пт2300:00+16св225728 0.0 101935
03:00+15св22555 0.0 101842
06:00+14св1148100 0.0 101870
09:00+16вюв0146100 0.0 1019123
12:00+16ююз2149100 0.0 1019164
15:00+17юз224595 0.0 1018221
18:00+18з225288 0.0 1017112
21:00+17ссз116399 0.0 101711